{"data":{"norad_id":65551,"intl_designator":"2025-201B","name":"GEESAT-5 02","alt_names":[],"object_type":"PAYLOAD","status":"ACTIVE","operator":null,"country":"PRC","launch_date":"2025-09-08","launch_site_code":"YSLA","launch_vehicle":null,"mission":null,"orbit_class":"UNKNOWN","rcs_meters":null,"size_class":null,"mass_kg":null,"dimensions":null,"purposes":[],"wikipedia_slug":null,"has_3d_model":false,"image_url":null,"decayed_at":null,"tle_current":{"epoch":"2026-05-25T00:40:38.428320Z","epoch_age_seconds":65973,"freshness":"FRESH","line1":"1 65551U 25201B   26145.02822255  .00001198  00000+0  16900-3 0  9993","line2":"2 65551  49.9849 146.8454 0008625 239.7983 120.2102 14.84098554 38356","mean_motion":14.84098554,"eccentricity":0.0008625,"inclination_deg":49.9849,"raan_deg":146.8454,"arg_perigee_deg":239.7983,"mean_anomaly_deg":120.2102,"bstar":0.000169,"rev_number":3835,"period_min":97.028596660165,"perigee_km":610.38397125782,"apogee_km":622.44957651778,"semimajor_km":6994.5537738878,"source":"CELESTRAK","updated_at":"2026-05-25T13:38:05.513132Z"}}}